{"data":{"norad_id":59611,"intl_designator":"2024-080L","name":"STARLINK-31448","alt_names":[],"object_type":"PAYLOAD","status":"ACTIVE","operator":null,"country":"US","launch_date":"2024-04-28","launch_site_code":"AFETR","launch_vehicle":null,"mission":null,"orbit_class":"UNKNOWN","rcs_meters":null,"size_class":null,"mass_kg":null,"dimensions":null,"purposes":["comms"],"wikipedia_slug":null,"has_3d_model":false,"image_url":null,"decayed_at":null,"tle_current":{"epoch":"2026-09-21T14:19:14.168064Z","epoch_age_seconds":73394,"freshness":"FRESH","line1":"1 59611U 24080L   26264.59669176 -.00005521  00000+0 -19109-3 0  9992","line2":"2 59611  43.0029   8.1115 0001249 272.5161  87.5548 15.27606544134531","mean_motion":15.27606544,"eccentricity":0.0001249,"inclination_deg":43.0029,"raan_deg":8.1115,"arg_perigee_deg":272.5161,"mean_anomaly_deg":87.5548,"bstar":-0.00019109,"rev_number":13453,"period_min":94.265110715577,"perigee_km":482.11266268922,"apogee_km":483.82656712162,"semimajor_km":6861.1066149054,"source":"CELESTRAK","updated_at":"2026-09-22T09:00:49.011689Z"}}}